Погода в Заречном

Россия / Омская область     54°19′45″N   74°35′14″E
темп.,
°C
ветер,
м/с
пор.,
м/с
влажн.,
%
обл.,
%
осадки,
мм/ч
давл.,
гПа
погр.,
м
25 февраля, чт
чт2500:00−27ююз47910 0.0 101295
03:00−27ююз4109628 0.0 1012183
06:00−25ююз499664 0.0 1013210
09:00−25ююз499598 0.0 1014227
12:00−22юз479298 0.0 1015461
15:00−21зюз4688100 0.0 1016704
18:00−26з469583 0.0 101987
21:00−26зюз489796 0.0 1021187
26 февраля, пт
пт2600:00−28з479775 0.1 1024126
03:00−29з499754 0.0 1026184
06:00−27з489677 0.1 1029231
09:00−28зюз489792 0.0 1031231
12:00−25зюз479596 0.1 1032352
15:00−24зюз4692100 0.0 1033443
18:00−27юз349696 0.0 103471
21:00−30юз349739 0.0 103432
27 февраля, сб
сб2700:00−31юз339823 0.0 103521
03:00−31юз239946 0.0 103519
06:00−31юз239954 0.0 103519
09:00−31ююз23981 0.0 103522
12:00−27ю35941 0.0 1035203
15:00−25ю35930 0.0 1035251
18:00−27ююв34950 0.0 103451
21:00−29ююв459615 0.0 103474
28 февраля, вс
вс2800:00−29юв479627 0.0 103388
03:00−27юв48984 0.0 1031125
06:00−24юв5109546 0.0 1029190
09:00−20юв71294100 0.0 1026279
12:00−15юв81394100 0.1 1023407
15:00−11юв81394100 1.0 1020564
18:00−9юв81494100 1.7 1016563
21:00−5юв71295100 1.0 1012469
1 марта, пн
пн100:00−2ю61297100 2.5 1009499
03:00+1юз71499100 1.6 1007602
06:00+1зюз71395100 1.8 1008628
09:000зюз7139199 0.1 1009605
12:00−1з7119091 0.1 1011762
15:00−3з599195 0.0 1013480
18:00−8з239464 0.0 101422
21:00−9зсз119697 0.1 101421